User: anonymous   Login
Location: Unspecified
(0.0000°N, 0.0000°E)
Time: 00:13:56
(UTC+00:00)
Language:

TIANMU-1 03 - Orbit

View from above orbital plane
View from above orbital plane
View from above satellite
View from above satellite

Ground track
Ground track

The orbit is defined by the following mean orbital elements,

1 55973U          26145.60413064 +.00000000 +00000-0 +28646-3 0 00003
2 55973  97.5230 318.7029 0003605 157.3177 202.8232 15.46550084    09
Epoch (UTC): 25 May 2026 14:29:56
Eccentricity: 0.0003605
inclination: 97.5230°
perigee height: 424 km
apogee height: 429 km
right ascension of ascending node: 318.7029°
argument of perigee: 157.3177°
revolutions per day: 15.46550084
mean anomaly at epoch: 202.8232°

The dashed part of the orbit path shows where the satellite is in the earth's shadow,  

DLR